FW9532 Weather Reports


time (UTC)temp
F
wind
direction
speed
knots
gust
knots
rain 1hr
in
rain 24hr
in
rain mn
in
humidity
%
barometer
mb
20260506002535 73 338 1.7 7.0 0.00 0.00 0.00 72 1006.1
20260506002034 73 316 3.5 7.8 0.00 0.00 0.00 72 1006.1
20260506001605 74 335 3.5 12.2 0.00 0.00 0.00 71 1005.9
20260506001035 74 312 4.3 12.2 0.00 0.00 0.00 71 1006.0
20260506000537 74 328 4.3 12.2 0.00 0.00 0.00 70 1005.9
20260506000050 75 307 3.5 8.7 0.00 0.00 0.00 71 1005.9
20260505235535 75 332 3.5 7.8 0.00 0.00 0.00 71 1005.9
20260505235035 75 311 3.5 9.6 0.00 0.00 0.00 71 1005.6
20260505234552 76 316 5.2 13.0 0.00 0.00 0.00 70 1005.4
20260505234037 76 32 4.3 13.0 0.00 0.00 0.00 69 1005.2
20260505233534 76 321 6.1 13.0 0.00 0.00 0.00 69 1005.3
20260505233053 78 314 7.0 13.0 0.00 0.00 0.00 67 1005.3
20260505232534 79 311 5.2 13.0 0.00 0.00 0.00 65 1005.4
20260505232035 79 288 3.5 12.2 0.00 0.00 0.00 65 1005.3
20260505231551 80 354 5.2 12.2 0.00 0.00 0.00 64 1005.1
20260505231038 80 301 5.2 12.2 0.00 0.00 0.00 63 1005.1
20260505230536 81 356 5.2 11.3 0.00 0.00 0.00 62 1004.9
20260505230045 82 328 5.2 10.4 0.00 0.00 0.00 59 1004.8
20260505225537 83 264 5.2 10.4 0.00 0.00 0.00 58 1004.5
20260505225035 83 287 4.3 9.6 0.00 0.00 0.00 56 1004.6
20260505224544 84 293 3.5 9.6 0.00 0.00 0.00 55 1004.7
20260505224034 84 11 4.3 11.3 0.00 0.00 0.00 55 1004.7
20260505223534 84 309 5.2 11.3 0.00 0.00 0.00 54 1004.5
20260505223055 84 306 4.3 9.6 0.00 0.00 0.00 53 1004.4
20260505222534 85 297 4.3 9.6 0.00 0.00 0.00 52 1004.4
20260505222034 86 296 4.3 11.3 0.00 0.00 0.00 52 1004.2
20260505221552 86 326 4.3 11.3 0.00 0.00 0.00 51 1004.0
20260505221036 86 286 4.3 10.4 0.00 0.00 0.00 52 1004.0
20260505220537 86 298 5.2 10.4 0.00 0.00 0.00 53 1004.1
20260505220047 87 244 4.3 12.2 0.00 0.00 0.00 58 1003.9
20260505215535 87 259 6.1 12.2 0.00 0.00 0.00 57 1003.9
20260505215035 88 243 4.3 12.2 0.00 0.00 0.00 57 1003.9
20260505214557 88 243 5.2 12.2 0.00 0.00 0.00 56 1004.2
20260505214034 88 225 5.2 13.0 0.00 0.00 0.00 57 1004.2
20260505213535 88 283 7.0 13.0 0.00 0.00 0.00 58 1004.1
20260505213057 88 248 7.8 13.0 0.00 0.00 0.00 57 1004.2
20260505212534 88 235 5.2 13.0 0.00 0.00 0.00 58 1004.2
20260505212035 87 239 8.7 13.9 0.00 0.00 0.00 58 1004.2
20260505211545 87 251 5.2 13.9 0.00 0.00 0.00 58 1004.3
20260505211036 87 250 7.8 15.6 0.00 0.00 0.00 58 1004.4
20260505210536 87 230 8.7 15.6 0.00 0.00 0.00 58 1004.5
20260505210049 87 242 7.8 14.8 0.00 0.00 0.00 59 1004.5
20260505205535 87 237 7.0 13.0 0.00 0.00 0.00 59 1004.3
20260505205035 87 237 6.1 10.4 0.00 0.00 0.00 59 1004.5
20260505204544 87 244 5.2 9.6 0.00 0.00 0.00 60 1004.6
20260505204035 86 231 6.1 12.2 0.00 0.00 0.00 60 1004.6
20260505203535 86 284 5.2 12.2 0.00 0.00 0.00 60 1004.6
20260505203046 86 250 5.2 10.4 0.00 0.00 0.00 60 1004.7
20260505202535 86 262 6.1 13.9 0.00 0.00 0.00 59 1004.8
20260505202038 86 233 7.8 13.9 0.00 0.00 0.00 59 1004.9
20260505201552 86 251 6.1 13.9 0.00 0.00 0.00 60 1004.9
20260505201035 86 234 6.1 11.3 0.00 0.00 0.00 61 1004.8
20260505200535 86 256 7.0 14.8 0.00 0.00 0.00 61 1004.7
20260505200040 85 240 7.0 15.6 0.00 0.00 0.00 61 1004.8
20260505195534 86 262 10.4 15.6 0.00 0.00 0.00 60 1004.9
20260505195035 86 276 8.7 14.8 0.00 0.00 0.00 59 1004.8
20260505194543 86 247 7.8 15.6 0.00 0.00 0.00 58 1004.9
20260505194036 86 241 9.6 15.6 0.00 0.00 0.00 60 1004.9
20260505193535 86 196 6.1 13.0 0.00 0.00 0.00 59 1004.8
20260505193049 86 252 6.1 13.9 0.00 0.00 0.00 63 1004.7
20260505192537 85 277 8.7 13.9 0.00 0.00 0.00 60 1004.7
20260505192035 85 231 7.0 13.9 0.00 0.00 0.00 62 1004.9
20260505191552 85 233 5.2 13.9 0.00 0.00 0.00 63 1004.8
20260505191035 85 231 6.1 12.2 0.00 0.00 0.00 64 1004.7
20260505190535 85 260 4.3 13.9 0.00 0.00 0.00 65 1004.6
20260505190055 85 274 5.2 13.9 0.00 0.00 0.00 66 1004.7
20260505185536 85 150 7.0 13.9 0.00 0.00 0.00 66 1004.7
20260505185035 84 242 7.0 14.8 0.00 0.00 0.00 66 1004.8
20260505184552 84 243 6.1 14.8 0.00 0.00 0.00 67 1004.8
20260505184036 84 237 4.3 12.2 0.00 0.00 0.00 67 1004.8
20260505183539 83 229 4.3 12.2 0.00 0.00 0.00 69 1004.9
20260505183048 83 166 6.1 12.2 0.00 0.00 0.00 69 1004.8
20260505182536 83 202 5.2 12.2 0.00 0.00 0.00 69 1004.9
20260505182034 82 220 5.2 12.2 0.00 0.00 0.00 69 1005.1
20260505181540 82 249 5.2 16.5 0.00 0.00 0.00 70 1005.2
20260505181039 82 238 8.7 16.5 0.00 0.00 0.00 69 1005.1
20260505180538 83 163 7.8 15.6 0.00 0.00 0.00 69 1005.1
20260505180050 83 313 7.0 15.6 0.00 0.00 0.00 70 1004.9
20260505175535 82 146 7.0 16.5 0.00 0.00 0.00 70 1005.0
20260505175035 81 237 7.0 20.0 0.00 0.00 0.00 71 1004.9
20260505174542 81 244 10.4 20.0 0.00 0.00 0.00 70 1004.9
20260505174035 81 188 7.0 18.2 0.00 0.00 0.00 71 1005.0
20260505173534 81 235 9.6 18.2 0.00 0.00 0.00 71 1005.0
20260505173044 81 233 6.1 16.5 0.00 0.00 0.00 72 1005.0
20260505172534 80 243 7.0 14.8 0.00 0.00 0.00 74 1005.0
20260505172033 79 212 6.1 13.9 0.00 0.00 0.00 74 1004.9
20260505171548 79 215 7.8 13.9 0.00 0.00 0.00 74 1005.2
20260505171033 78 243 6.1 15.6 0.00 0.00 0.00 75 1004.7
20260505170530 78 248 8.7 15.6 0.00 0.00 0.00 75 1005.4
20260505170049 78 237 7.0 17.4 0.00 0.00 0.00 74 1005.1
20260505165530 78 238 7.8 17.4 0.00 0.00 0.00 75 1005.1
20260505165034 78 264 7.8 14.8 0.00 0.00 0.00 75 1005.1
20260505164543 78 219 7.0 15.6 0.00 0.00 0.00 76 1004.9
20260505164032 77 257 8.7 15.6 0.00 0.00 0.00 75 1005.4
20260505163533 77 266 6.1 14.8 0.00 0.00 0.00 75 1004.6
20260505163041 77 231 6.1 17.4 0.00 0.00 0.00 76 1005.0
20260505162530 77 224 8.7 18.2 0.00 0.00 0.00 75 1005.5
20260505162033 78 232 10.4 18.2 0.00 0.00 0.00 75 1005.5
20260505161541 78 233 7.8 19.1 0.00 0.00 0.00 75 1004.9
20260505161034 78 239 10.4 20.0 0.00 0.00 0.00 75 1005.1
20260505160536 78 227 10.4 20.0 0.00 0.00 0.00 75 1005.1
20260505153052 76 255 7.8 17.4 0.00 0.00 0.00 77 1004.7
20260505152532 76 236 8.7 21.7 0.00 0.00 0.00 77 1004.7
20260505152033 76 236 9.6 21.7 0.00 0.00 0.00 78 1005.0
20260505151543 76 231 9.6 21.7 0.00 0.00 0.00 77 1005.0
20260505151033 76 223 5.2 16.5 0.00 0.00 0.00 78 1005.0
20260505150532 76 231 7.8 17.4 0.00 0.00 0.00 78 1005.0
20260505140535 74 246 5.2 13.0 0.00 0.00 0.00 82 1004.6
20260505125035 72 240 4.3 10.4 0.00 0.00 0.00 84 1004.5
20260505124605 72 298 4.3 10.4 0.00 0.00 0.00 85 1004.5
20260505124034 72 223 3.5 15.6 0.00 0.00 0.00 85 1004.4
20260505123534 71 207 5.2 15.6 0.00 0.00 0.00 85 1004.3
20260505123110 71 238 7.0 15.6 0.00 0.00 0.00 85 1004.4
20260505122534 71 225 2.6 8.7 0.00 0.00 0.00 86 1004.3
20260505122036 71 151 3.5 8.7 0.00 0.00 0.00 86 1004.3
20260505121549 71 169 3.5 8.7 0.00 0.00 0.00 86 1004.3
20260505121038 70 191 3.5 8.7 0.00 0.00 0.00 87 1004.3
20260505120535 70 155 2.6 8.7 0.00 0.00 0.00 87 1004.3
20260505120052 70 161 2.6 8.7 0.00 0.00 0.00 87 1004.1
20260505115535 70 160 2.6 7.8 0.00 0.00 0.00 87 1004.2
20260505115034 70 205 3.5 7.8 0.00 0.00 0.00 87 1004.1
20260505114553 70 192 4.3 9.6 0.00 0.00 0.00 87 1004.1
20260505114035 70 263 3.5 10.4 0.00 0.00 0.00 86 1003.9
20260505113535 70 254 4.3 10.4 0.00 0.00 0.00 86 1004.0
20260505113044 71 167 4.3 10.4 0.00 0.00 0.00 86 1004.0
20260505112535 71 214 4.3 9.6 0.00 0.00 0.00 86 1004.0
20260505112035 71 189 3.5 9.6 0.00 0.00 0.00 86 1003.9
20260505111557 71 214 4.3 11.3 0.00 0.00 0.00 86 1004.0
20260505111035 71 147 2.6 12.2 0.00 0.00 0.00 85 1003.8
20260505110535 71 216 4.3 12.2 0.00 0.00 0.00 85 1003.8
20260505102035 71 140 4.3 11.3 0.00 0.00 0.00 86 1003.9
20260505101546 71 205 5.2 11.3 0.00 0.00 0.00 86 1004.0
20260505101035 71 226 3.5 12.2 0.00 0.00 0.00 86 1004.0
20260505100536 71 214 3.5 13.9 0.00 0.00 0.00 86 1003.9
20260505100044 71 211 5.2 13.9 0.00 0.00 0.00 86 1003.9
20260505095534 71 181 6.1 13.9 0.00 0.00 0.00 86 1003.9
20260505095034 70 240 5.2 13.9 0.00 0.00 0.00 86 1004.0
20260505094550 70 184 4.3 12.2 0.00 0.00 0.00 86 1004.0
20260505094035 70 187 5.2 12.2 0.00 0.00 0.00 86 1004.0
20260505093535 70 233 5.2 15.6 0.00 0.00 0.00 86 1004.1
20260505093049 70 217 5.2 15.6 0.00 0.00 0.00 86 1004.3
20260505092535 70 231 5.2 9.6 0.00 0.00 0.00 86 1004.3
20260505092036 70 243 4.3 8.7 0.00 0.00 0.00 86 1004.3
20260505091548 70 175 4.3 12.2 0.00 0.00 0.00 86 1004.4
20260505091035 70 195 5.2 14.8 0.00 0.00 0.00 86 1004.4
20260505090535 70 143 5.2 14.8 0.00 0.00 0.00 86 1004.3
20260505090105 70 226 5.2 10.4 0.00 0.00 0.00 86 1004.4
20260505085535 70 212 6.1 10.4 0.00 0.00 0.00 86 1004.4
20260505085035 70 165 3.5 9.6 0.00 0.00 0.00 86 1004.3
20260505084541 70 177 4.3 13.9 0.00 0.00 0.00 86 1004.3
20260505084034 70 219 5.2 13.9 0.00 0.00 0.00 86 1004.4
20260505083536 70 214 4.3 11.3 0.00 0.00 0.00 85 1004.5
20260505083043 70 206 5.2 11.3 0.00 0.00 0.00 85 1004.4
20260505082535 70 149 4.3 11.3 0.00 0.00 0.00 85 1004.3
20260505082036 71 240 2.6 12.2 0.00 0.00 0.00 85 1004.4
20260505081550 71 165 4.3 12.2 0.00 0.00 0.00 84 1004.4
20260505081036 71 158 6.1 13.0 0.00 0.00 0.00 84 1004.5
20260505080535 71 152 5.2 13.0 0.00 0.00 0.00 84 1004.5
20260505080055 71 252 5.2 13.0 0.00 0.00 0.00 84 1004.5
20260505075533 71 197 4.3 13.0 0.00 0.00 0.00 83 1004.6
20260505075034 71 160 3.5 13.9 0.00 0.00 0.00 83 1004.6
20260505074546 71 158 7.0 13.9 0.00 0.00 0.00 83 1004.7
20260505074036 71 227 4.3 13.0 0.00 0.00 0.00 83 1004.8
20260505073532 71 204 4.3 11.3 0.00 0.00 0.00 82 1004.8
20260505073054 71 200 3.5 13.9 0.00 0.00 0.00 82 1004.9
20260505072535 72 153 4.3 13.9 0.00 0.00 0.00 82 1005.1
20260505072030 72 251 5.2 13.0 0.00 0.00 0.00 81 1005.1
20260505071545 72 173 4.3 13.0 0.00 0.00 0.00 81 1005.0
20260505071034 72 146 5.2 13.9 0.00 0.00 0.00 81 1005.1
20260505070533 72 163 6.1 13.9 0.00 0.00 0.00 81 1005.1
20260505070052 72 200 5.2 13.0 0.00 0.00 0.00 81 1005.3
20260505065530 72 214 5.2 12.2 0.00 0.00 0.00 80 1005.4
20260505065029 72 218 4.3 11.3 0.00 0.00 0.00 80 1005.4
20260505064540 72 224 5.2 12.2 0.00 0.00 0.00 80 1005.6
20260505064030 72 198 5.2 12.2 0.00 0.00 0.00 80 1005.6
20260505063530 72 212 7.0 13.9 0.00 0.00 0.00 80 1005.7
20260505063037 72 239 6.1 13.9 0.00 0.00 0.00 80 1005.7
20260505062530 72 227 5.2 13.0 0.00 0.00 0.00 80 1005.8
20260505062031 72 197 5.2 13.0 0.00 0.00 0.00 79 1005.7
20260505061542 72 181 4.3 13.9 0.00 0.00 0.00 79 1005.6
20260505061030 72 153 5.2 13.9 0.00 0.00 0.00 79 1005.7
20260505060530 72 255 6.1 12.2 0.00 0.00 0.00 79 1005.7
20260505060045 72 163 4.3 12.2 0.00 0.00 0.00 79 1005.5
20260505055530 72 191 5.2 12.2 0.00 0.00 0.00 79 1005.6
20260505055030 72 201 5.2 12.2 0.00 0.00 0.00 79 1005.6
20260505054544 72 146 5.2 12.2 0.00 0.00 0.00 79 1005.8
20260505054033 72 169 6.1 12.2 0.00 0.00 0.00 78 1005.9
20260505053535 72 216 5.2 12.2 0.00 0.00 0.00 78 1006.0
20260505053042 72 229 5.2 12.2 0.00 0.00 0.00 78 1005.9
20260505052535 72 202 5.2 11.3 0.00 0.00 0.00 78 1006.1
20260505052030 72 157 5.2 12.2 0.00 0.00 0.00 78 1006.1
20260505051547 72 171 4.3 12.2 0.00 0.00 0.00 78 1006.2
20260505051031 72 193 4.3 10.4 0.00 0.00 0.00 77 1006.2
20260505050533 72 141 4.3 10.4 0.00 0.00 0.00 77 1006.4
20260505050123 72 217 4.3 12.2 0.00 0.00 0.00 77 1006.3
20260505041555 73 215 6.1 18.2 0.00 0.00 0.00 75 1006.3
20260505041035 73 167 7.0 18.2 0.00 0.00 0.00 75 1006.4
20260505040535 73 171 4.3 13.0 0.00 0.00 0.00 75 1006.4
20260505040053 73 169 4.3 13.9 0.00 0.00 0.00 75 1006.4
20260505035535 73 158 7.0 13.9 0.00 0.00 0.00 75 1006.3
20260505035035 73 150 5.2 14.8 0.00 0.00 0.00 75 1006.3
20260505034545 73 143 6.1 14.8 0.00 0.00 0.00 74 1006.4
20260505034035 73 148 7.0 14.8 0.00 0.00 0.00 74 1006.4
20260505033536 73 194 6.1 14.8 0.00 0.00 0.00 74 1006.4
20260505033050 73 169 7.8 14.8 0.00 0.00 0.00 74 1006.5
20260505032535 73 214 5.2 13.0 0.00 0.00 0.00 74 1006.6
20260505032034 73 125 6.1 13.0 0.00 0.00 0.00 74 1006.4
20260505031550 73 261 5.2 13.0 0.00 0.00 0.00 73 1006.5
20260505031036 73 250 4.3 13.0 0.00 0.00 0.00 73 1006.4
20260505030535 73 153 4.3 17.4 0.00 0.00 0.00 73 1006.3
20260505030049 74 213 5.2 17.4 0.00 0.00 0.00 73 1006.3
20260505025536 74 184 6.1 17.4 0.00 0.00 0.00 72 1006.4
20260505025036 74 178 5.2 13.0 0.00 0.00 0.00 72 1006.2
20260505024548 74 151 7.8 15.6 0.00 0.00 0.00 72 1006.2
20260505024035 74 155 5.2 15.6 0.00 0.00 0.00 72 1006.2
20260505023537 74 189 6.1 15.6 0.00 0.00 0.00 71 1006.4
20260505023045 74 234 4.3 13.0 0.00 0.00 0.00 71 1006.2
20260505022535 74 240 7.8 13.9 0.00 0.00 0.00 71 1006.2
20260505022035 74 179 6.1 13.9 0.00 0.00 0.00 71 1006.2
20260505021543 75 166 6.1 13.9 0.00 0.00 0.00 70 1006.2
20260505021035 75 162 6.1 13.9 0.00 0.00 0.00 70 1006.1
20260505020535 75 177 6.1 13.9 0.00 0.00 0.00 70 1006.1
20260505020041 75 82 6.1 13.9 0.00 0.00 0.00 70 1006.1
20260505015535 75 174 6.1 14.8 0.00 0.00 0.00 70 1006.1
20260505015035 75 163 6.1 15.6 0.00 0.00 0.00 70 1006.0
20260505014604 75 117 5.2 15.6 0.00 0.00 0.00 69 1006.1
20260505014038 75 259 5.2 15.6 0.00 0.00 0.00 69 1006.2
20260505013533 75 198 4.3 14.8 0.00 0.00 0.00 69 1006.2
20260505013049 75 161 6.1 14.8 0.00 0.00 0.00 69 1006.1
20260505012533 75 165 6.1 13.0 0.00 0.00 0.00 68 1006.2
20260505012034 75 180 6.1 13.9 0.00 0.00 0.00 68 1006.3
20260505011546 75 239 6.1 13.9 0.00 0.00 0.00 68 1006.2
20260505011034 75 226 7.0 13.9 0.00 0.00 0.00 68 1006.4
20260505010530 76 200 3.5 13.0 0.00 0.00 0.00 68 1006.4
20260505010045 76 159 6.1 13.0 0.00 0.00 0.00 67 1006.3
20260505005530 76 167 6.1 13.0 0.00 0.00 0.00 67 1006.4
20260505005030 76 180 6.1 11.3 0.00 0.00 0.00 66 1006.2
20260505004545 77 209 5.2 12.2 0.00 0.00 0.00 66 1006.2
20260505004033 77 161 4.3 15.6 0.00 0.00 0.00 65 1006.3
20260505003529 77 276 7.0 15.6 0.00 0.00 0.00 65 1006.4
20260505003039 77 167 8.7 15.6 0.00 0.00 0.00 64 1006.3